Location: Cosy Dell
(34.2789°N, 117.4537°W)
Time: 23:03:41
(UTC+00:00)

GEOS 3 Rocket - Pass Details

Date: 14 July 2020
Orbit: 771 x 848 km, 115.0° (Epoch: 12 August)

Event Time Altitude Azimuth Distance (km) Brightness Sun altitude
Rises 05:29:41 0° 32° (NNE) 3,412 7.1 -24.2°
Reaches altitude 10° 05:32:01 10° 32° (NNE) 2,475 6.4 -24.5°
Maximum altitude 05:37:26 86° 305° (NW) 852 3.6 -25.2°
Enters shadow 05:39:54 34° 217° (SW) 1,358 4.6 -25.5°
